Temperature
14 13 12 12 12 14 14 14 13 12 13 13 12 12 12 13 14 14 15 16 16 16 17 17 18 18 18 17 17 16 15 15 14 13 13 12 11 11 10 10 10 9 9 9
13 12 13 13 13 13 13 13 12 12 13 13 12 12 12 13 13 13 14 15 16 17 17 17 17 17 17 16 16 15 15 14 14 13 12 11 11 10 10 10 10 9 9 9
13 14 14 13 13 13 13 12 13 13 12 12 12 14 14 14 14 14 14 15 15 16 16 16 16 16 16 16 15 15 14 14 13 12 11 11 11 10 10 10 10 10 9 9
12 12 13 14 13 13 13 13 13 13 12 11 12 12 13 13 14 14 14 15 15 15 15 15 16 15 15 15 15 14 14 13 13 12 12 11 11 11 10 10 10 9 9 8
13 14 14 14 14 13 13 14 13 13 12 11 11 11 12 12 13 13 13 14 14 15 15 15 15 14 14 14 14 14 13 13 12 12 11 11 11 10 10 10 9 9 9 8
13 14 14 14 14 13 13 12 11 9 9 12 12 11 12 11 12 13 13 14 14 14 14 14 14 14 14 13 13 13 13 12 12 12 11 11 11 10 10 10 9 9 9 8
14 14 14 14 14 13 13 12 12 13 12 12 12 11 11 12 12 12 12 14 14 14 14 14 13 13 13 13 12 12 12 12 11 11 11 10 10 10 10 9 9 8 8 8
14 13 14 13 14 13 13 12 12 13 12 11 11 10 11 11 10 12 13 14 14 14 13 13 13 12 12 12 12 11 11 11 11 10 10 10 9 9 9 8 8 8 8 7
12 13 13 13 13 13 12 11 11 10 11 10 10 10 10 11 11 11 12 13 14 13 13 12 12 12 11 11 11 11 11 10 10 10 9 9 9 8 8 8 7 7 7 7
12 14 14 13 13 12 12 10 9 10 11 11 11 10 11 13 12 11 11 12 13 13 12 12 12 11 11 11 10 10 10 9 9 9 8 8 8 7 7 7 7 6 6 6
12 13 13 13 12 12 11 11 10 8 9 10 11 11 11 12 11 10 11 12 12 12 12 11 11 11 10 10 10 9 9 9 8 8 7 7 7 6 6 6 6 6 6 6
11 10 11 12 12 11 11 10 9 11 10 8 8 10 12 11 11 11 11 11 11 11 11 11 11 10 10 9 9 8 8 8 7 7 6 6 6 6 6 6 5 5 5 5
10 11 12 12 11 11 11 10 9 9 8 6 8 11 11 10 10 10 10 11 11 10 10 10 10 9 9 8 8 8 7 7 6 6 6 5 5 5 5 5 5 5 5 5
11 10 11 12 12 11 11 11 9 9 8 7 7 10 11 10 9 9 10 10 10 10 9 9 9 8 8 7 7 6 6 6 5 5 5 5 5 4 4 4 4 4 4 3
11 11 10 11 11 11 11 11 9 9 9 9 9 9 10 9 8 9 9 9 9 9 9 8 8 7 7 6 6 5 5 5 4 4 4 4 4 4 4 3 3 3 3 2
9 10 10 10 10 9 9 9 9 9 8 8 8 8 9 8 8 8 9 8 8 8 8 7 7 6 6 5 5 4 4 4 4 3 3 3 3 3 3 3 2 2 2 2
7 8 9 8 9 9 8 9 9 8 7 8 8 8 7 7 7 8 8 8 7 7 6 6 5 5 5 4 4 4 4 3 3 3 3 3 2 2 2 2 1 1 1 1
7 7 7 7 9 8 10 10 9 8 8 7 7 7 7 7 8 8 8 7 7 6 5 5 4 4 4 4 3 3 3 3 3 2 2 2 2 1 1 1 0 0 -0 -1
7 7 6 6 7 7 8 8 8 7 7 7 6 6 7 7 7 7 7 6 5 5 4 4 4 4 4 3 3 3 3 2 2 2 2 1 1 0 0 -0 -1 -1 -1 -1
5 6 6 5 6 7 9 9 9 8 7 6 6 6 6 5 4 5 6 5 5 4 4 4 3 3 3 3 2 2 2 2 1 1 1 0 -0 -1 -1 -1 -1 -2 -2 -2
5 5 5 5 6 7 8 8 9 8 8 7 7 7 6 5 5 5 5 4 4 4 3 3 3 3 3 2 2 2 1 1 1 0 0 -0 -1 -1 -2 -2 -2 -3 -3 -3
6 5 5 5 5 7 8 7 7 7 7 7 7 6 6 5 5 4 4 4 3 3 3 3 3 3 2 2 1 1 1 0 0 -0 -0 -1 -1 -2 -3 -3 -3 -3 -4 -4
6 7 6 6 7 7 7 7 7 8 7 7 6 6 5 4 4 4 3 3 3 3 2 2 2 2 2 1 1 0 0 -0 -1 -1 -1 -2 -2 -3 -3 -4 -4 -4 -5 -5
5 5 5 4 5 6 6 7 7 7 6 6 5 5 4 4 3 3 3 3 2 2 2 2 1 1 1 1 1 -0 -1 -1 -1 -2 -2 -3 -3 -4 -4 -4 -5 -5 -6 -6
6 4 4 4 5 5 5 6 6 6 5 5 4 4 3 3 3 3 2 2 2 2 2 1 1 1 1 0 0 -0 -1 -2 -2 -3 -3 -4 -4 -5 -5 -5 -6 -6 -6 -6
4 4 4 5 5 4 5 6 5 5 4 4 4 3 3 3 2 2 2 2 2 1 1 1 1 0 0 -0 -0 -1 -2 -3 -3 -4 -4 -5 -5 -5 -6 -6 -6 -6 -6 -6
Wind_Speed
3 2 5 8 8 5 2 4 7 8 5 4 6 9 10 8 4 5 7 9 11 10 9 10 10 7 4 3 4 6 8 8 7 6 7 6 8 6 6 11 16 19 20 21
3 5 9 5 4 4 4 5 7 7 3 2 6 8 6 2 2 2 5 8 9 11 13 13 12 9 6 3 0 3 6 7 8 7 5 4 4 4 6 8 14 19 20 21
8 6 1 5 4 5 5 6 6 6 6 3 5 6 3 2 3 3 4 5 7 8 10 11 11 10 8 6 2 2 4 6 7 6 4 3 2 0 2 6 8 14 19 20
7 6 3 5 6 7 6 6 6 3 3 5 4 3 5 3 4 2 3 6 7 8 8 8 9 9 9 7 4 2 0 3 4 6 6 7 6 7 8 6 6 8 15 19
6 4 4 6 7 9 7 1 2 1 3 3 1 2 8 2 5 6 3 2 4 5 7 7 8 7 8 7 6 4 3 2 2 4 6 7 8 9 6 4 6 8 8 14
7 4 4 5 1 4 4 5 4 5 4 2 2 4 6 4 7 5 5 3 1 3 5 6 6 7 8 8 7 6 5 4 1 2 4 7 9 9 8 8 8 7 6 7
4 3 3 3 4 2 4 4 4 5 4 4 1 3 8 6 5 6 8 6 3 1 3 5 7 8 8 9 8 7 7 5 3 0 3 6 8 8 9 10 8 8 6 6
3 5 4 4 6 6 5 6 5 3 4 5 3 5 7 5 5 3 5 6 3 1 1 3 4 5 6 7 7 7 6 5 4 3 3 4 5 5 6 8 7 8 7 9
7 5 1 1 1 8 6 3 5 5 2 3 6 7 8 1 3 4 5 4 2 1 1 2 4 5 5 6 5 5 5 5 5 5 4 4 4 5 6 7 7 7 8 8
9 4 1 1 4 4 4 8 5 4 2 4 7 6 5 5 3 3 3 3 3 1 1 2 3 3 4 4 4 5 4 5 5 6 5 4 5 5 6 6 8 8 8 8
6 5 1 1 6 7 5 4 5 4 4 4 4 7 6 7 6 5 4 3 3 1 1 2 2 3 3 4 4 5 6 6 6 7 6 6 7 6 6 7 8 8 9 9
6 5 3 5 1 3 6 7 8 5 5 5 4 8 4 3 3 3 3 2 1 1 1 1 2 3 4 5 6 6 6 6 6 6 6 7 7 7 8 8 9 9 9 9
7 6 2 4 3 0 3 5 5 5 5 6 6 8 2 2 2 1 1 0 1 2 3 3 3 4 5 6 6 7 7 6 6 6 7 8 8 9 9 10 10 10 10 10
6 5 7 8 7 7 5 6 7 7 5 7 10 10 5 4 2 1 1 2 2 2 3 3 4 5 6 6 6 7 7 7 7 7 8 9 10 10 10 11 11 11 10 11
6 5 7 6 3 4 7 8 9 10 10 11 10 11 10 7 5 3 3 2 2 2 3 4 5 6 7 7 7 7 7 7 7 8 9 10 10 10 10 11 11 11 11 12
4 5 4 3 1 3 6 11 12 12 10 10 10 10 4 1 3 3 2 2 1 2 4 6 7 7 7 7 7 7 7 8 7 8 10 11 11 11 11 11 12 12 12 12
6 8 5 4 2 4 9 11 11 8 7 9 10 7 3 3 3 2 2 1 1 3 5 6 7 7 7 7 6 7 8 8 8 10 11 11 11 12 12 13 12 13 13 12
8 8 5 3 2 8 9 2 6 6 4 6 4 4 5 3 1 2 2 2 2 4 5 6 7 7 7 6 6 7 8 8 9 10 11 11 12 13 13 13 13 13 12 13
5 8 5 5 5 9 9 5 7 7 5 4 7 5 3 1 3 2 1 1 2 4 5 6 6 6 6 8 8 8 9 9 10 11 12 12 12 14 14 15 15 14 14 14
4 4 6 5 5 8 8 3 4 6 4 5 7 6 4 3 1 3 2 3 4 5 4 5 6 6 7 8 8 8 10 11 12 13 13 12 12 14 15 16 16 14 13 15
5 4 6 7 7 9 7 3 6 5 6 7 7 6 5 5 5 3 3 4 4 5 6 6 7 7 8 9 8 10 11 12 13 13 13 13 12 13 15 15 14 14 15 15
9 8 8 7 7 10 3 7 8 6 5 7 6 5 5 4 3 3 4 5 6 6 7 7 7 9 9 9 9 11 13 14 13 13 14 14 13 13 13 14 15 14 14 15
8 9 7 10 8 2 1 5 4 6 6 5 5 4 3 2 3 3 4 5 6 6 7 7 8 10 10 9 9 12 14 14 14 14 14 14 14 12 12 13 15 15 13 13
5 3 5 5 6 3 2 4 4 4 5 4 3 2 2 2 3 4 5 5 6 7 7 7 9 10 12 11 10 11 13 13 13 15 15 14 14 14 12 11 12 12 13 13
5 7 4 4 3 3 3 4 4 4 3 3 2 2 2 3 3 4 5 6 7 7 8 8 9 11 14 13 12 12 12 12 13 14 14 14 13 14 14 12 11 13 12 15
5 7 8 7 7 7 6 6 5 5 3 3 3 2 2 3 5 5 6 7 8 8 9 10 11 11 13 13 13 12 11 10 12 14 13 12 12 13 13 14 14 18 20 25
Wind_Direction
53 81 226 223 207 214 226 247 269 268 285 303 282 288 298 317 353 11 12 7 5 1 351 13 27 43 72 112 171 187 188 184 172 177 190 203 220 216 217 219 219 215 216 214
34 257 239 209 186 202 222 262 274 289 303 289 302 295 295 321 349 353 7 6 3 2 9 16 24 31 38 41 188 202 197 187 186 191 183 189 195 213 217 221 224 222 220 219
209 237 164 156 182 196 226 220 244 273 325 7 334 329 327 342 356 10 26 14 12 16 11 9 17 23 25 19 344 237 208 197 193 178 153 127 118 345 231 226 228 227 225 225
234 261 224 212 222 188 255 234 216 248 329 307 15 304 278 275 304 320 358 9 14 14 17 18 18 18 17 6 4 9 198 190 185 172 176 190 207 227 232 226 230 229 225 228
245 227 199 214 226 183 217 128 164 202 187 306 341 200 286 278 239 244 257 332 11 20 26 26 21 19 21 18 25 28 49 74 159 181 194 204 228 242 253 246 243 239 229 229
244 247 219 215 163 161 140 83 67 60 82 317 228 178 279 235 221 222 216 220 2 26 31 27 23 28 27 25 30 33 45 44 67 185 205 217 236 251 264 263 260 257 245 237
279 249 229 155 124 75 104 81 9 350 6 264 257 208 252 258 248 218 198 195 194 49 38 21 21 21 19 18 19 24 34 28 19 289 235 237 243 250 255 263 264 265 262 253
251 278 225 189 182 173 167 143 160 232 261 291 308 240 255 286 298 233 173 162 163 141 34 17 22 23 15 12 14 15 18 9 357 337 294 269 257 253 258 262 261 262 262 262
193 248 33 116 148 138 135 162 156 135 170 274 287 291 305 1 46 89 125 142 190 233 309 2 18 24 13 4 1 358 356 349 343 334 320 309 293 272 271 276 269 265 265 270
165 206 185 81 92 31 143 141 109 130 181 275 295 282 255 239 192 164 170 205 245 270 338 9 16 8 360 351 341 345 346 334 328 333 328 318 310 297 286 285 283 278 276 274
156 167 214 155 195 189 130 136 126 124 159 177 271 276 229 216 200 193 215 241 256 265 328 9 1 350 345 341 340 339 339 338 334 334 330 326 317 309 302 291 284 282 282 281
157 133 218 250 248 180 177 176 153 165 214 185 200 267 280 214 190 184 221 250 326 76 78 45 13 356 347 339 334 333 332 330 323 323 322 315 308 306 301 293 288 285 282 281
140 127 85 342 350 60 202 186 175 139 133 167 189 258 309 94 86 118 172 157 58 76 65 29 1 343 331 325 325 326 326 322 320 323 319 313 309 305 299 295 293 291 287 285
124 139 176 205 217 187 200 196 173 153 179 212 222 244 263 281 284 260 174 132 108 82 49 9 340 324 318 317 319 321 320 318 318 318 314 307 302 298 294 293 291 290 287 286
123 184 221 239 224 189 217 216 198 201 205 218 236 234 250 253 232 201 166 127 97 47 6 344 327 316 316 319 319 317 313 313 314 314 309 301 297 294 293 293 291 290 288 286
122 169 177 266 251 225 254 245 227 227 227 234 256 266 252 160 131 142 156 132 89 349 328 322 318 315 313 311 308 308 307 308 311 306 300 298 299 298 296 295 294 293 291 288
149 141 150 246 309 354 272 242 220 214 209 200 227 234 148 123 139 180 190 147 9 314 309 309 307 302 302 300 298 300 298 303 305 300 298 298 298 296 294 294 294 293 293 291
149 147 155 173 130 240 244 219 176 183 222 201 177 147 144 155 232 252 184 145 320 311 307 306 305 303 301 297 297 294 297 300 299 298 296 295 295 295 296 295 295 294 293 293
152 144 141 159 219 270 286 238 177 177 223 191 158 150 139 66 20 335 153 106 302 295 292 289 291 291 295 298 297 302 302 301 299 297 295 295 295 298 300 299 298 297 297 296
81 117 139 157 197 242 248 196 153 120 227 204 160 161 164 122 54 268 273 329 314 310 306 303 303 302 301 300 303 304 301 302 299 297 296 296 296 297 298 298 298 297 296 295
128 150 179 187 220 256 248 194 133 177 236 169 165 173 175 185 206 241 310 316 314 313 310 310 309 305 299 301 305 300 299 297 295 296 298 298 296 294 296 296 296 297 297 297
174 176 189 172 204 249 208 145 179 194 139 149 165 178 191 217 254 288 305 308 315 314 308 309 306 302 300 300 299 297 297 297 298 299 300 300 298 297 301 298 299 297 297 299
200 193 188 193 211 268 164 168 151 136 143 161 169 182 183 215 256 287 294 299 299 296 296 295 294 297 298 295 291 293 297 301 304 303 303 303 302 298 296 297 300 303 300 299
230 159 160 219 246 222 140 126 123 125 140 147 144 153 163 209 256 279 284 286 291 291 292 293 297 298 299 298 292 287 295 301 303 304 305 305 305 304 301 297 297 299 300 299
207 166 178 224 220 149 215 193 161 129 109 105 105 141 182 212 254 261 271 280 282 286 287 288 289 290 292 294 293 292 295 300 302 303 304 305 303 303 304 300 296 297 290 291
193 179 181 214 200 183 205 193 165 155 162 166 168 183 209 213 240 260 268 272 276 281 284 286 286 286 290 293 295 296 294 295 299 305 307 306 305 304 304 305 303 298 297 300
Height
1529 1533 1535 1533 1532 1532 1532 1534 1537 1532 1525 1525 1523 1521 1515 1511 1509 1508 1507 1505 1503 1502 1501 1499 1497 1497 1497 1498 1499 1500 1502 1504 1506 1508 1510 1512 1514 1516 1517 1519 1520 1522 1523 1524
1533 1533 1526 1526 1528 1531 1533 1535 1535 1530 1525 1525 1524 1521 1514 1511 1510 1510 1509 1507 1506 1504 1503 1501 1501 1500 1499 1499 1500 1500 1501 1502 1504 1506 1507 1509 1511 1512 1513 1515 1515 1516 1517 1517
1530 1526 1522 1525 1528 1531 1532 1534 1531 1529 1526 1525 1525 1519 1514 1512 1511 1511 1510 1509 1508 1507 1506 1505 1504 1503 1502 1502 1501 1501 1502 1502 1503 1504 1505 1506 1507 1508 1509 1509 1510 1510 1511 1510
1527 1522 1522 1523 1525 1527 1531 1525 1527 1527 1531 1533 1530 1533 1518 1514 1512 1511 1511 1510 1509 1509 1508 1507 1506 1506 1505 1504 1503 1503 1502 1502 1503 1503 1504 1504 1504 1504 1505 1505 1505 1505 1504 1503
1523 1519 1520 1521 1520 1522 1523 1521 1524 1526 1530 1534 1533 1534 1524 1516 1514 1512 1511 1511 1510 1510 1510 1509 1509 1508 1507 1506 1505 1504 1504 1503 1503 1503 1503 1503 1502 1502 1501 1501 1499 1498 1498 1496
1519 1516 1516 1516 1516 1518 1520 1524 1529 1534 1537 1536 1529 1534 1525 1518 1511 1510 1509 1510 1510 1511 1511 1510 1510 1510 1509 1508 1507 1506 1505 1504 1503 1503 1502 1501 1500 1499 1498 1496 1495 1493 1492 1490
1517 1515 1513 1513 1516 1519 1521 1529 1537 1533 1538 1535 1529 1532 1524 1509 1507 1507 1507 1508 1510 1511 1511 1511 1511 1510 1510 1509 1508 1507 1506 1505 1504 1502 1501 1500 1498 1496 1494 1492 1490 1488 1486 1484
1520 1520 1512 1512 1513 1518 1521 1526 1536 1538 1540 1538 1530 1531 1516 1507 1504 1503 1505 1507 1509 1510 1511 1511 1511 1510 1510 1509 1508 1507 1506 1505 1503 1501 1499 1498 1495 1493 1490 1488 1485 1482 1480 1477
1520 1519 1512 1511 1511 1515 1522 1526 1527 1538 1539 1542 1534 1526 1513 1505 1504 1504 1504 1506 1508 1509 1510 1510 1510 1510 1509 1509 1508 1507 1505 1503 1501 1499 1497 1494 1492 1489 1486 1483 1480 1477 1474 1471
1511 1515 1512 1512 1513 1515 1517 1523 1533 1537 1538 1539 1534 1528 1519 1506 1505 1505 1505 1506 1507 1508 1508 1509 1509 1509 1509 1508 1507 1505 1503 1501 1498 1496 1493 1490 1487 1484 1481 1478 1474 1471 1468 1464
1507 1513 1514 1514 1516 1516 1521 1523 1527 1536 1537 1540 1538 1526 1507 1503 1502 1504 1504 1504 1505 1506 1506 1507 1507 1508 1507 1506 1505 1503 1500 1497 1495 1492 1489 1486 1482 1479 1476 1472 1469 1465 1461 1457
1506 1514 1519 1515 1512 1512 1514 1518 1525 1530 1533 1539 1540 1525 1500 1500 1500 1501 1503 1503 1504 1504 1505 1506 1506 1506 1505 1504 1502 1499 1496 1493 1490 1487 1484 1480 1477 1474 1470 1466 1462 1458 1453 1449
1504 1513 1520 1518 1520 1516 1514 1516 1519 1523 1530 1540 1538 1519 1501 1500 1500 1501 1501 1502 1502 1503 1504 1504 1504 1504 1502 1500 1498 1495 1492 1489 1485 1482 1478 1475 1471 1467 1463 1459 1454 1450 1445 1440
1498 1508 1514 1516 1513 1511 1512 1513 1516 1520 1527 1530 1524 1509 1501 1499 1500 1500 1501 1501 1501 1502 1503 1503 1502 1501 1499 1496 1493 1490 1487 1484 1480 1477 1473 1469 1465 1460 1455 1451 1446 1441 1436 1431
1497 1506 1507 1506 1505 1507 1507 1507 1511 1514 1512 1513 1506 1504 1498 1498 1498 1498 1499 1500 1500 1501 1501 1500 1499 1497 1495 1492 1489 1486 1482 1479 1475 1471 1467 1462 1458 1453 1448 1443 1437 1432 1427 1422
1497 1503 1506 1506 1505 1507 1508 1504 1504 1504 1504 1503 1500 1498 1494 1495 1496 1497 1498 1498 1499 1499 1499 1497 1496 1493 1490 1487 1484 1481 1477 1474 1470 1465 1461 1456 1451 1445 1440 1434 1429 1423 1418 1412
1499 1504 1509 1511 1509 1506 1507 1494 1494 1495 1494 1496 1497 1494 1494 1495 1495 1496 1496 1497 1497 1497 1496 1494 1492 1489 1486 1483 1480 1476 1472 1468 1464 1459 1455 1449 1443 1437 1432 1426 1420 1414 1408 1402
1497 1502 1509 1513 1510 1512 1492 1485 1486 1489 1489 1490 1490 1492 1492 1494 1494 1495 1495 1495 1495 1494 1493 1491 1488 1485 1482 1479 1475 1471 1467 1463 1458 1453 1448 1442 1436 1429 1423 1417 1411 1405 1399 1393
1492 1498 1510 1515 1512 1502 1490 1483 1485 1488 1488 1487 1489 1490 1492 1493 1493 1493 1493 1494 1493 1492 1490 1487 1485 1481 1478 1474 1470 1466 1462 1457 1452 1446 1440 1435 1428 1422 1415 1409 1402 1396 1390 1383
1494 1495 1505 1512 1509 1502 1485 1479 1478 1483 1488 1486 1486 1488 1490 1491 1495 1494 1492 1491 1489 1488 1486 1483 1480 1477 1474 1470 1465 1460 1455 1450 1445 1439 1433 1427 1421 1415 1408 1401 1394 1388 1381 1374
1497 1499 1502 1506 1505 1492 1479 1477 1479 1487 1482 1482 1484 1486 1488 1489 1490 1490 1489 1487 1486 1484 1482 1479 1476 1473 1469 1465 1460 1454 1449 1444 1438 1432 1425 1419 1414 1407 1400 1393 1386 1380 1372 1365
1487 1494 1497 1499 1502 1490 1474 1476 1478 1477 1478 1480 1482 1484 1485 1486 1486 1486 1485 1484 1482 1480 1478 1475 1471 1468 1464 1460 1454 1448 1443 1437 1431 1424 1417 1411 1405 1399 1392 1385 1377 1371 1365 1357
1478 1476 1478 1480 1478 1473 1472 1472 1473 1475 1477 1479 1480 1482 1483 1483 1483 1482 1481 1480 1478 1476 1473 1470 1466 1462 1458 1454 1449 1442 1436 1430 1423 1416 1409 1402 1396 1390 1384 1377 1369 1363 1357 1350
1472 1471 1474 1476 1473 1471 1471 1472 1473 1474 1476 1477 1478 1479 1480 1480 1480 1479 1478 1476 1474 1472 1469 1465 1461 1456 1451 1447 1442 1436 1430 1423 1415 1408 1401 1394 1387 1380 1374 1369 1363 1356 1350 1343
1465 1469 1471 1472 1470 1471 1471 1471 1472 1473 1474 1475 1476 1477 1477 1477 1477 1476 1474 1472 1470 1467 1464 1460 1455 1450 1445 1440 1434 1429 1423 1416 1408 1401 1394 1387 1380 1373 1366 1360 1356 1350 1344 1339
1462 1464 1467 1465 1463 1465 1466 1468 1470 1471 1472 1473 1474 1474 1474 1474 1473 1472 1470 1468 1465 1462 1458 1454 1449 1443 1438 1432 1427 1422 1416 1409 1401 1393 1386 1379 1373 1366 1359 1352 1346 1341 1337 1332